Regional Weather Roundup
Issued by NWS

Home | Current Version | Previous Version | Text Only | Print | Product List | Glossary Off
Versions: 1 2 3 4 5 6 7 8 9 10 11 12 13 14 15 16 17 18 19 20 21 22 23 24 25 26 27 28 29 30 31 32 33 34 35 36 37 38 39 40 41 42 43 44 45 46 47 48 49

000
ASUS45 KBOU 270807
RWRCO

WEATHER ROUNDUP FOR COLORADO
NATIONAL WEATHER SERVICE DENVER/BOULDER CO
200 AM MDT SUN JUL 27 2014

NOTE: "FAIR" INDICATES FEW OR NO CLOUDS BELOW 12000 FEET WITH NO
SIGNIFICANT WEATHER AND/OR OBSTRUCTIONS TO VISIBILITY.

COZ001>005-013-030-031-270900-
...NORTHWEST COLORADO...

CITY           SKY/WX    TMP DP  RH WIND       PRES   REMARKS
CRAIG          CLEAR     49  48  97 W3        30.32F
HAYDEN         CLEAR     55  45  67 SE9       30.35S
MEEKER         PTCLDY    59  50  72 N8        30.33R
MOUNT WERNER   NOT AVBL
STEAMBOAT SPGS CLEAR     51  47  88 CALM      30.38S
WALDEN         CLEAR     50  41  71 SE6       30.47R
$$

COZ006>008-011-270900-
...WEST CENTRAL VALLEYS...

CITY           SKY/WX    TMP DP  RH WIND       PRES   REMARKS
GRAND JUNCTION PTCLDY    70  50  49 W5        30.18S
MONTROSE       CLEAR     69  49  48 S8        30.27S
EAGLE          CLEAR     54  54 100 CALM      30.43S
RIFLE          PTCLDY    61  54  77 SE8       30.28S
DELTA          CLEAR     71  46  41 CALM      30.22R
NUCLA          CLEAR     72  45  37 E9        30.28R
$$

COZ017>023-064>068-270900-
...SOUTHWEST COLORADO...

CITY           SKY/WX    TMP DP  RH WIND       PRES   REMARKS
DURANGO        PTCLDY    69  45  41 NE10      30.31S
CORTEZ         CLEAR     65  47  52 CALM      30.23S
PAGOSA SPRINGS PTCLDY    62  47  60 CALM      30.43S
TELLURIDE      CLEAR     59  46  63 E6        30.51S
WOLF CREEK PAS NOT AVBL
$$

COZ009-010-012-014-032>034-037-058>063-270900-
...CENTRAL COLORADO...

CITY           SKY/WX    TMP DP  RH WIND       PRES   REMARKS
ASPEN          CLEAR     51  43  74 S5        30.45S
BUENA VISTA    PTCLDY    51  47  86 CALM      30.50S
COPPER MTN     CLEAR     55  32  41 S8        30.77S
BERTHOUD PASS  FAIR      45  32  61 CALM      30.82R
COTTONWOOD PAS PTCLDY    55  45  67 S3        30.62S
GUNNISON       CLEAR     55  48  76 N5        30.48S
KREMMLING      CLEAR     50  45  81 SE6       30.47S
LEADVILLE      CLEAR     42  38  85 E6        30.61F
MONARCH PASS   PTCLDY    50  37  62 CALM      30.86S
SALIDA         PTCLDY   N/A N/A N/A W3        30.54S
SUNLIGHT       MOCLDY    59  36  41 CALM      30.67S
WILKERSON PASS NOT AVBL
$$

COZ069>075-270900-
...SAN LUIS VALLEY/SANGRE DE CRISTO MOUNTAINS...

CITY           SKY/WX    TMP DP  RH WIND       PRES   REMARKS
ALAMOSA        MOCLDY    59  52  77 SW8       30.43S
LA VETA PASS   MOCLDY    52  45  76 E9        30.63S
SAGUACHE       CLEAR     57  50  77 N8        30.46S
$$

COZ035-036-038>040-270900-
...NORTHERN COLORADO FRONT RANGE...

CITY           SKY/WX    TMP DP  RH WIND       PRES   REMARKS
DENVER INTL AP MOCLDY    64  52  64 SE13      30.23S
DMNS CITY PARK   N/A     66  53  64 SW5       30.24R
AURORA         PTCLDY    62  52  69 S10       30.26R
FRONT RANGE AP NOT AVBL
ERIE MUNI ARPT CLEAR     60  56  84 CALM      30.23R
BOULDER MUN AP CLEAR     64  54  68 NW6       30.24R
CENTENNIAL     PTCLDY    64  51  62 S10       30.26S
BROOMFIELD     CLEAR     66  52  59 NW15      30.25S
FORT COLLINS   CLEAR     61  54  77 N10       30.26R
LONGMONT       CLEAR     67  56  67 N7        30.25R
$$

COZ041-046-047-076>085-087-088-270900-
...PIKES PEAK/PALMER DIVIDE AND SOUTHERN FOOTHILLS...

CITY           SKY/WX    TMP DP  RH WIND       PRES   REMARKS
COLO. SPRINGS  PTCLDY    63  51  65 N5        30.32S
A. F. ACADEMY  CLEAR     55  55  99 N10       30.34F
ELLICOTT       PTCLDY    60  52  74 CALM      30.30F
FALCON         PTCLDY    61  51  69 W7        30.37S
FORT CARSON    PTCLDY    63  55  74 CALM      30.29R
LIMON          MOCLDY    68  58  70 SE3       30.27S
MONUMENT HILL  PTCLDY    61  50  67 SW5       30.36R
TRINIDAD       CLOUDY    66  58  75 NW8       30.30F
$$

COZ042>045-048>051-090-091-270900-
...NORTHEAST COLORADO...

CITY           SKY/WX    TMP DP  RH WIND       PRES   REMARKS
GREELEY ARPT   CLEAR     59  50  72 N6        30.22R
AKRON          CLOUDY    68  63  84 SE9       30.24R
BURLINGTON     CLOUDY    71  62  73 E6        30.20S
WRAY             N/A     69  63  80 CALM      30.19R
STERLING       CLOUDY    72  66  83 E3        30.20R
HOLYOKE        CLEAR     64  63  94 CALM      30.19S
FORT MORGAN    CLOUDY    65  61  89 E9        30.22R
$$

COZ086-089-092>099-270900-
...SOUTHEAST COLORADO...

CITY           SKY/WX    TMP DP  RH WIND       PRES   REMARKS
PUEBLO         MOCLDY    68  60  75 CALM      30.22F
LA JUNTA       CLOUDY    74  59  59 S5        30.20S
LAMAR          CLOUDY    71  64  78 NE7       30.15R
SPRINGFIELD      N/A     67  61  81 NE6       30.19F
$$


USA.gov is the U.S. government's official web portal to all federal, state and local government web resources and services.